Location: Nairn
(57.5833°N, 3.8667°W)
Time: 20:50:11
(UTC+00:00)

S-56A Canister/Altair - Pass Details

Date: 08 October 2022
Orbit: 638 x 2494 km, 38.9° (Epoch: 05 December)

Event Time Altitude Azimuth Distance (km) Brightness Sun altitude
Exits shadow 04:55:22 12° 229° (SW) 3,386 10.3 -14.0°
Maximum altitude 04:57:07 13° 217° (SW) 3,180 10.2 -13.8°
Drops below altitude 10° 05:00:15 10° 193° (SSW) 3,128 10.4 -13.3°
Sets 05:04:31 0° 166° (SSE) 3,718 11.1 -12.8°
